Simultaneous Nadir Overpasses (SNOs) Predictions

Prediction of SNOs between LANDSAT-8 and NOAA-19 Satellite Orbit:

Table of predicted SNOs for the next 14.0 days since TLE Epoch: 9/22/2017
Index Date (LANDSAT-8) Time (LANDSAT-8) Lat,Lon (LANDSAT-8) SZA (LANDSAT-8 ) Date (NOAA-19) Time (NOAA-19) Lat,Lon (NOAA-19) SZA (NOAA-19 ) Distance(km) Time Diff (sec)
1 09/24/2017 09:43:21 76.65, 44.52 77.50 09/24/2017 09:42:49 76.63, 44.43 77.48 2.49 32
2 09/24/2017 10:32:50 -76.57,-148.11 102.58 09/24/2017 10:33:53 -76.57,-148.08 102.56 1.02 63
3 09/26/2017 15:17:07 -76.64, 141.06 101.63 09/26/2017 15:16:39 -76.63, 141.06 101.65 1.37 28
4 09/26/2017 16:06:34 76.58, -51.51 78.32 09/26/2017 16:07:34 76.59, -51.51 78.34 1.18 60
5 09/28/2017 20:50:51 76.65,-122.35 79.26 09/28/2017 20:50:20 76.65,-122.39 79.26 1.37 31
6 09/28/2017 21:40:20 -76.58, 45.04 100.82 09/28/2017 21:41:24 -76.59, 45.10 100.79 2.22 64
7 10/01/2017 02:24:37 -76.64, -25.80 99.88 10/01/2017 02:24:10 -76.66, -25.80 99.87 1.66 27
8 10/01/2017 03:14:03 76.62, 141.77 80.12 10/01/2017 03:15:05 76.61, 141.64 80.12 3.43 62
9 10/03/2017 07:58:21 76.64, 70.75 80.99 10/03/2017 07:57:50 76.64, 70.92 81.00 4.35 31
10 10/03/2017 08:47:49 -76.62,-121.69 99.02 10/03/2017 08:48:55 -76.63,-121.80 99.00 3.12 66
11 10/05/2017 13:32:06 -76.68, 167.45 98.09 10/05/2017 13:31:40 -76.66, 167.43 98.12 1.91 26




NCC Satellite Simultaneous Nadir Overpasses (SNOs) Prediction Service
